| time (UTC) | temp F | wind direction | speed MPH | gust MPH | rain 1hr in | rain 24hr in | rain mn in | humidity % | barometer mb |
| 20260505033746 | 52 | 344 | 1.0 | 4.0 | 0.00 | 0.23 | 0.00 | 92 | 1011.8 |
| 20260505032152 | 52 | 48 | 2.0 | 5.0 | 0.00 | 0.23 | 0.00 | 93 | 1011.8 |
| 20260505032104 | 52 | 13 | 2.0 | 7.0 | 0.00 | 0.23 | 0.00 | 93 | 1011.9 |
| 20260505031718 | 52 | 55 | 2.0 | 9.0 | 0.00 | 0.23 | 0.00 | 92 | 1011.8 |
| 20260505030642 | 52 | 9 | 2.0 | 6.0 | 0.00 | 0.23 | 0.00 | 92 | 1011.8 |
| 20260505021640 | 52 | 24 | 2.0 | 7.0 | 0.00 | 0.23 | 0.00 | 93 | 1011.9 |
| 20260505020633 | 52 | 12 | 2.0 | 6.0 | 0.00 | 0.23 | 0.00 | 94 | 1011.8 |
| 20260505015930 | 52 | 326 | 3.0 | 8.0 | 0.00 | 0.23 | 0.00 | 94 | 1011.7 |
| 20260505015658 | 52 | 46 | 2.0 | 8.0 | 0.00 | 0.23 | 0.00 | 94 | 1011.7 |
| 20260505013625 | 52 | 351 | 3.0 | 8.0 | 0.00 | 0.23 | 0.00 | 94 | 1011.7 |
| 20260505012625 | 52 | 338 | 4.0 | 11.0 | 0.00 | 0.23 | 0.00 | 95 | 1011.7 |
| 20260505011816 | 52 | 311 | 4.0 | 9.0 | 0.00 | 0.23 | 0.00 | 95 | 1011.8 |
| 20260505011641 | 52 | 13 | 4.0 | 8.0 | 0.00 | 0.23 | 0.00 | 95 | 1011.7 |
| 20260505005806 | 52 | 319 | 4.0 | 10.0 | 0.00 | 0.23 | 0.00 | 95 | 1012.1 |
| 20260505005640 | 52 | 348 | 3.0 | 10.0 | 0.00 | 0.23 | 0.00 | 95 | 1011.9 |
| 20260505004219 | 52 | 19 | 3.0 | 11.0 | 0.00 | 0.23 | 0.00 | 95 | 1012.4 |
| 20260505004126 | 52 | 346 | 3.0 | 9.0 | 0.00 | 0.23 | 0.00 | 95 | 1012.4 |
| 20260505003715 | 52 | 349 | 4.0 | 9.0 | 0.00 | 0.23 | 0.00 | 95 | 1012.2 |
| 20260505000637 | 52 | 336 | 4.0 | 11.0 | 0.00 | 0.23 | 0.00 | 95 | 1012.4 |
| 20260504235812 | 52 | 15 | 4.0 | 13.0 | 0.00 | 0.23 | 0.00 | 95 | 1012.5 |
| 20260504235638 | 52 | 355 | 4.0 | 12.0 | 0.00 | 0.23 | 0.00 | 95 | 1012.5 |
| 20260504233648 | 52 | 13 | 3.0 | 10.0 | 0.00 | 0.23 | 0.00 | 95 | 1012.6 |
| 20260504232627 | 52 | 56 | 3.0 | 11.0 | 0.00 | 0.23 | 0.00 | 96 | 1012.8 |
| 20260504231709 | 52 | 16 | 3.0 | 9.0 | 0.00 | 0.23 | 0.00 | 96 | 1012.7 |
| 20260504230625 | 52 | 335 | 2.0 | 6.0 | 0.00 | 0.23 | 0.00 | 96 | 1012.8 |
| 20260504225735 | 52 | 355 | 2.0 | 9.0 | 0.00 | 0.23 | 0.00 | 95 | 1012.7 |
| 20260504225632 | 52 | 53 | 2.0 | 11.0 | 0.00 | 0.23 | 0.00 | 95 | 1012.7 |
| 20260504223626 | 51 | 5 | 5.0 | 12.0 | 0.00 | 0.23 | 0.00 | 95 | 1012.8 |
| 20260504222620 | 51 | 355 | 5.0 | 11.0 | 0.00 | 0.23 | 0.00 | 95 | 1012.9 |
| 20260504221631 | 51 | 18 | 5.0 | 14.0 | 0.00 | 0.23 | 0.00 | 95 | 1013.0 |
| 20260504220618 | 51 | 12 | 4.0 | 12.0 | 0.00 | 0.23 | 0.00 | 95 | 1013.2 |
| 20260504220112 | 52 | 37 | 2.0 | 6.0 | 0.00 | 0.23 | 0.23 | 95 | 1013.1 |
| 20260504214624 | 51 | 38 | 3.0 | 9.0 | 0.00 | 0.23 | 0.23 | 95 | 1013.1 |
| 20260504213619 | 52 | 5 | 4.0 | 13.0 | 0.00 | 0.23 | 0.23 | 95 | 1013.1 |
| 20260504212611 | 52 | 337 | 4.0 | 10.0 | 0.00 | 0.23 | 0.23 | 95 | 1013.2 |
| 20260504211627 | 52 | 351 | 1.0 | 5.0 | 0.00 | 0.23 | 0.23 | 95 | 1013.5 |
| 20260504210619 | 52 | 38 | 3.0 | 9.0 | 0.00 | 0.23 | 0.23 | 95 | 1013.5 |
| 20260504205621 | 52 | 340 | 2.0 | 9.0 | 0.00 | 0.23 | 0.23 | 95 | 1013.3 |
| 20260504204621 | 52 | 15 | 2.0 | 7.0 | 0.00 | 0.23 | 0.23 | 95 | 1013.4 |
| 20260504203619 | 52 | 0 | 2.0 | 6.0 | 0.00 | 0.23 | 0.23 | 95 | 1013.4 |
| 20260504202610 | 52 | 333 | 3.0 | 9.0 | 0.00 | 0.23 | 0.23 | 95 | 1013.3 |
| 20260504201612 | 52 | 327 | 3.0 | 9.0 | 0.00 | 0.23 | 0.23 | 95 | 1013.3 |
| 20260504200606 | 52 | 346 | 3.0 | 9.0 | 0.00 | 0.23 | 0.23 | 95 | 1013.3 |
| 20260504195626 | 52 | 342 | 4.0 | 10.0 | 0.00 | 0.23 | 0.23 | 95 | 1013.2 |
| 20260504194634 | 53 | 349 | 3.0 | 10.0 | 0.00 | 0.23 | 0.23 | 95 | 1013.1 |
| 20260504193617 | 53 | 5 | 4.0 | 10.0 | 0.00 | 0.23 | 0.23 | 94 | 1013.0 |
| 20260504192612 | 53 | 330 | 3.0 | 9.0 | 0.00 | 0.23 | 0.23 | 94 | 1013.0 |
| 20260504191619 | 53 | 306 | 3.0 | 11.0 | 0.00 | 0.23 | 0.23 | 94 | 1012.9 |
| 20260504190608 | 53 | 347 | 3.0 | 10.0 | 0.00 | 0.23 | 0.23 | 94 | 1012.8 |
| 20260504185608 | 53 | 23 | 2.0 | 8.0 | 0.00 | 0.23 | 0.23 | 94 | 1012.8 |
| 20260504184610 | 54 | 57 | 4.0 | 14.0 | 0.00 | 0.23 | 0.23 | 94 | 1012.9 |
| 20260504183924 | 54 | 26 | 5.0 | 14.0 | 0.00 | 0.23 | 0.23 | 94 | 1012.7 |
| 20260504183623 | 54 | 11 | 5.0 | 12.0 | 0.00 | 0.23 | 0.23 | 94 | 1012.8 |
| 20260504181600 | 54 | 327 | 5.0 | 13.0 | 0.00 | 0.23 | 0.23 | 94 | 1012.6 |
| 20260504180601 | 54 | 350 | 8.0 | 16.0 | 0.00 | 0.23 | 0.23 | 94 | 1012.4 |
| 20260504175604 | 54 | 5 | 6.0 | 16.0 | 0.00 | 0.23 | 0.23 | 93 | 1012.5 |
| 20260504175120 | 55 | 317 | 5.0 | 14.0 | 0.00 | 0.23 | 0.23 | 93 | 1012.6 |
| 20260504175012 | 55 | 340 | 4.0 | 11.0 | 0.00 | 0.23 | 0.23 | 93 | 1012.7 |
| 20260504174646 | 55 | 0 | 5.0 | 13.0 | 0.00 | 0.23 | 0.23 | 93 | 1012.6 |
| 20260504171600 | 56 | 51 | 3.0 | 12.0 | 0.00 | 0.23 | 0.23 | 92 | 1012.6 |
| 20260504170602 | 57 | 57 | 2.0 | 6.0 | 0.02 | 0.23 | 0.23 | 92 | 1012.5 |
| 20260504150603 | 64 | 19 | 3.0 | 9.0 | 0.00 | 0.12 | 0.00 | 79 | 1012.1 |
| 20260504140835 | 68 | 327 | 2.0 | 5.0 | 0.00 | 0.18 | 0.00 | 67 | 1012.4 |
| 20260504140607 | 68 | 53 | 2.0 | 4.0 | 0.00 | 0.18 | 0.00 | 67 | 1012.3 |
| 20260504130551 | 67 | 37 | 1.0 | 4.0 | 0.00 | 0.18 | 0.00 | 71 | 1012.9 |
| 20260504100539 | 62 | 255 | 1.0 | 5.0 | 0.00 | 0.18 | 0.00 | 79 | 1013.4 |
| 20260504080540 | 58 | 250 | 0.0 | 3.0 | 0.00 | 0.33 | 0.00 | 89 | 1013.2 |
| 20260504050525 | 53 | 273 | 0.0 | 0.0 | 0.00 | 0.43 | 0.00 | 97 | 1011.8 |
| 20260504045526 | 53 | 273 | 0.0 | 0.0 | 0.00 | 0.43 | 0.00 | 96 | 1011.8 |
| 20260504044527 | 53 | 274 | 0.0 | 0.0 | 0.00 | 0.43 | 0.00 | 96 | 1011.8 |
| 20260504043524 | 53 | 274 | 0.0 | 2.0 | 0.00 | 0.43 | 0.00 | 96 | 1011.9 |
| 20260504042521 | 53 | 274 | 0.0 | 2.0 | 0.00 | 0.43 | 0.00 | 96 | 1011.8 |
| 20260504041521 | 53 | 274 | 0.0 | 2.0 | 0.00 | 0.43 | 0.00 | 96 | 1011.7 |
| 20260504040514 | 54 | 274 | 1.0 | 3.0 | 0.00 | 0.43 | 0.00 | 96 | 1011.7 |
| 20260504035519 | 54 | 274 | 2.0 | 4.0 | 0.00 | 0.43 | 0.00 | 96 | 1011.7 |